Regional Weather Roundup
Issued by NWS Huntsville, AL

Home | Current Version | Previous Version | Text Only | Print | Product List | Glossary On
Versions: 1 2 3 4 5 6 7 8 9 10 11 12 13 14 15 16 17 18 19 20 21 22 23 24 25 26 27 28 29 30 31 32 33 34 35 36 37 38 39 40 41 42 43 44 45 46 47 48 49 50
000
ASUS44 KHUN 282110
RWRHUN

WEATHER ROUNDUP FOR THE TENNESSEE VALLEY
NATIONAL WEATHER SERVICE HUNTSVILLE AL
400 PM CDT THU MAY 28 2015

ALZ001>004-282200-
NORTHWEST ALABAMA

CITY           SKY/WX    TMP DP  RH WIND       PRES   REMARKS
BANKHEAD NF      N/A     78  67  69 W3          N/A
RUSSELLVILLE     N/A     77 N/A N/A MISG        N/A
SHOALS AIRPORT MOSUNNY   80  66  62 S3        30.13F
SHOALS TVA RES   N/A     79 N/A N/A MISG        N/A
$$

ALZ005>007-016-282200-
NORTH CENTRAL ALABAMA

CITY           SKY/WX    TMP DP  RH WIND       PRES   REMARKS
CULLMAN AG STN   N/A     77 N/A N/A E3          N/A
DECATUR AP     PTSUNNY   81  69  67 VRB6      30.13F
HUNTSVILLE AP  PTSUNNY   82  65  56 CALM      30.13F
HUN NWS/UAH      N/A     82  64  55 SE3         N/A
MERIDIANVILLE  SUNNY     81  61  50 SE5       30.14S
REDSTONE ARSN  MOSUNNY   80  68  66 E2        30.12F
VINEMONT AP    FAIR      77  68  75 E5        30.16S
$$

ALZ008>010-282200-
NORTHEAST ALABAMA

CITY           SKY/WX    TMP DP  RH WIND       PRES   REMARKS
ALBERTVILLE    PTSUNNY   79  72  78 CALM      30.14S
FORT PAYNE     PTSUNNY   79  63  57 E3        30.14F
SCOTTSBORO HCN   N/A     81 N/A N/A MISG        N/A
VALLEY HEAD      N/A     79 N/A N/A MISG        N/A
$$

TNZ076-096-097-282200-
SOUTHEASTERN MIDDLE TENNESSEE

CITY           SKY/WX    TMP DP  RH WIND       PRES   REMARKS
TULLAHOMA      SUNNY     81  64  57 CALM      30.16F
WINCHESTER     MOSUNNY   81  64  57 VRB5      30.15F
$$

...SURROUNDING SITES...

CITY           SKY/WX    TMP DP  RH WIND       PRES   REMARKS
ATLANTA        LGT RAIN  72  67  84 E5        30.18S
ANNISTON       TSTM      77  70  79 N10       30.13S
BIRMINGHAM     TSTM      70  69  97 CALM      30.16F FOG
CHATTANOOGA    PTSUNNY   82  65  56 CALM      30.15F
CORINTH        FAIR      81  68  65 NE5       30.11F
DALTON         PTSUNNY   79  70  73 CALM      30.15F
GADSDEN        CLOUDY   N/A N/A N/A CALM      30.12F
GOLDEN TRNGL   PTSUNNY   79  68  69 SE9       30.08F
HALEYVILLE     FAIR      76  70  82 CALM      30.16F
JACKSON TN     MOSUNNY   79  66  64 VRB3      30.12F
LEWISBURG      FAIR      81  64  55 CALM      30.13F
MEMPHIS        PTSUNNY   81  64  56 CALM      30.11F
NASHVILLE      PTSUNNY   85  64  49 CALM      30.14F
OXFORD MS      FAIR      79  63  57 W3        30.12F
ROME           TSTM      72  68  87 SE17G25   30.18R FOG
SAVANNAH       MOSUNNY   81  32  17 CALM      30.12F
TUPELO         PTSUNNY   81  65  58 VRB3      30.09F
TUSCALOOSA     MOSUNNY   78  69  73 E3        30.11F
$$

...GULF COAST WEATHER...

CITY           SKY/WX    TMP DP  RH WIND       PRES   REMARKS
GULFPORT       MOSUNNY   85  70  60 VRB7      30.05F
PASCAGOULA     PTSUNNY   82  72  71 S9        30.07F
MOBILE         PTSUNNY   83  71  67 SE12      30.09S
GULF SHORES    CLOUDY    78  72  82 CALM      30.10R
PENSACOLA      CLOUDY    79  72  79 SW8       30.09S
DESTIN         LGT RAIN  81  72  74 S9G18     30.11R
PANAMA CITY    PTSUNNY   72  69  90 NE2       30.11F
APPALACHICOLA  CLOUDY    84  71  65 S10       30.10F
$$




USA.gov is the U.S. government's official web portal to all federal, state and local government web resources and services.